SUPERBIRD 6

导读

SUPERBIRD 6(又名A2)是日本空间通信公司的Superbird系列通信卫星,由洛克希德·马丁公司基于A2100平台制造,于2004年4月16日发射升空。该卫星入轨后进入低于预期的近地点轨道,太阳能电池受损,同年11月一个主燃料箱失压引发姿态误差。它原定服务日本通信广播领域,搭载Ku波段转发器提供高容量信号传输,设计寿命超过10年,是日本早期商用通信卫星布局的重要节点。

基本信息
目录编号:
28218
目录名称:
SUPERBIRD 6
国际标识:
2004-011A
轨道中心:
EARTH
卫星名称:
SUPERBIRD 6
卫星全名:
--
卫星状态:
在轨 (已飞行8124 天)
发射日期:
2004-04-16 UTC
国别 :
日本 (JP)
星等 :
--
轨道信息
数据来源 国际轨道数据 AOE轨道数据
星历时间 2026-07-14T03:23:22+0800
8小时前
查看轨道信息
2026-07-14T00:00:00+0800
12小时前
查看轨道信息
半长轴 42392.005km 42391.976km
偏心率 0.0028779 0.0028898
轨道倾角 13.478° 13.478°
近地点辐角 46.464° 46.200°
升交点赤经 17.409° 17.412°
平近点角 326.065° 275.753°
近地点 35891.868km 35891.334km
远地点 36135.868km 36136.344km
周期 1447.724分钟 1447.722分钟
每日圈数 0.994665 0.994666
详细信息
使用方式:
暂无
2D轨道图
3D轨道图
轨道高度分析图
轨道倾角分析图
轨道综合分析图
查看轨道综合分析图